LiveATC.Net - Listen to live air traffic control over the Internet!


ICAO: ENZV  IATA: SVG   Airport: Stavanger Sola Airport
City: Stavanger
Country: Norway   Continent: Europe
ENZV METAR Weather: ENZV 150050Z 14013KT 9999 -DZ BKN017 OVC027 04/02 Q0979 RERA REDZ
ENZV Flight Activity (FlightAware)

ENZV Gnd/Twr/App
Feed Status: UP   Listeners: 1
Listen in your browser - HTML5 player (in browser, HTML5)
Click here to listen with your own player (launches your MP3 player)
Archive Access: ENZV Gnd/Twr/App
FacilityFrequency
Sola Approach/Departure119.600
Sola Ground121.750
Sola Tower118.350

NOTICE

Unauthorized use prohibited. See LiveATC.net Terms of Service


Airport/ARTCC Code
Frequency Search
(e.g., 124.400, 128.75)
Site-wide search
 


Browse Feeds
Top 50 Feeds
Coverage Map
Bad Weather Areas

LiveATC FAQ
Offer LiveATC feed
Contact LiveATC.net
Press Inquiries

LiveATC on iPhone
LiveATC on Android

Windows Phone
Windows 8/10

LiveATC Mobile
(Mobile browser)

ATC Audio Archives
Interesting Recordings

LiveATC Forums


Home Page
About LiveATC.net
Make a Donation
Terms of Use
Privacy Policy

Canadian Air Freqs

AIRMETs/SIGMETs

FAA Airport Status
Nat'l Airspace Status
Arrival Demand Charts


Server Software By:
Icecast.org
Liquidsoap